IGO104 OEJN-VABB

Flight info

Callsign IGO104
Flight time N/A
Altitude 37000
Route EGPOB2W/34C EGPOB V31 BSH L425 AMBIT DCT ASTIN DCT GOBRO L425 ASPUX T208 BOLUR
Aircraft A20N/M-SDGHIRWXY/LB1D1

Departure

Time N/A
Airport King Abdulaziz International Airport (OEJN)

Arrival

Time 2026-04-30 14:45
Airport Chhatrapati Shivaji Maharaj International Airport (VABB)
Time Latitude Longitude Altitude Speed Heading
2026-04-30 12:58 17.51694 60.96458 36849 ft 486 kts 104°
2026-04-30 12:59 17.50129 61.03312 36849 ft 486 kts 104°
2026-04-30 12:59 17.48559 61.10165 36849 ft 485 kts 104°
2026-04-30 13:00 17.46979 61.17055 36849 ft 485 kts 104°
2026-04-30 13:00 17.45412 61.23876 36849 ft 486 kts 104°
2026-04-30 13:01 17.43834 61.30736 36849 ft 485 kts 104°
2026-04-30 13:01 17.42250 61.37608 36849 ft 485 kts 104°
2026-04-30 13:02 17.40675 61.44433 36849 ft 485 kts 104°
2026-04-30 13:02 17.39089 61.51290 36849 ft 485 kts 104°
2026-04-30 13:03 17.37504 61.58133 36848 ft 485 kts 104°
2026-04-30 13:03 17.35923 61.64955 36849 ft 484 kts 104°
2026-04-30 13:04 17.34343 61.71780 36847 ft 484 kts 104°
2026-04-30 13:04 17.32758 61.78613 36845 ft 484 kts 104°
2026-04-30 13:05 17.31168 61.85442 36844 ft 484 kts 104°
2026-04-30 13:06 17.28780 61.95673 36842 ft 484 kts 104°
2026-04-30 13:06 17.27181 62.02504 36837 ft 484 kts 104°
2026-04-30 13:07 17.25580 62.09332 36832 ft 483 kts 104°
2026-04-30 13:07 17.23991 62.16102 36831 ft 482 kts 104°
2026-04-30 13:08 17.22385 62.22930 36830 ft 482 kts 104°
2026-04-30 13:08 17.20790 62.29700 36835 ft 483 kts 104°
2026-04-30 13:09 17.19179 62.36527 36838 ft 483 kts 104°
2026-04-30 13:09 17.17576 62.43313 36838 ft 483 kts 104°
2026-04-30 13:10 17.15969 62.50100 36841 ft 482 kts 104°
2026-04-30 13:10 17.14359 62.56893 36839 ft 482 kts 104°
2026-04-30 13:11 17.12752 62.63665 36839 ft 482 kts 104°
2026-04-30 13:11 17.11137 62.70472 36842 ft 481 kts 104°
2026-04-30 13:12 17.09542 62.77197 36848 ft 481 kts 104°
2026-04-30 13:12 17.07927 62.83968 36850 ft 481 kts 104°
2026-04-30 13:13 17.05492 62.94149 36851 ft 481 kts 104°
2026-04-30 13:14 17.03212 63.04301 36845 ft 481 kts 98°
2026-04-30 13:14 17.03305 63.14691 36844 ft 481 kts 80°
2026-04-30 13:15 17.06433 63.24627 36846 ft 481 kts 66°
2026-04-30 13:16 17.09202 63.31003 36848 ft 482 kts 65°
2026-04-30 13:16 17.11958 63.37368 36848 ft 482 kts 65°
2026-04-30 13:17 17.16054 63.46911 36848 ft 482 kts 66°
2026-04-30 13:18 17.20141 63.56474 36848 ft 481 kts 66°
2026-04-30 13:18 17.24216 63.66033 36848 ft 481 kts 66°
2026-04-30 13:19 17.26929 63.72436 36850 ft 481 kts 66°
2026-04-30 13:19 17.29627 63.78800 36847 ft 481 kts 66°
2026-04-30 13:20 17.32347 63.85210 36848 ft 481 kts 66°
2026-04-30 13:20 17.35065 63.91615 36843 ft 481 kts 66°
2026-04-30 13:21 17.37759 63.97969 36844 ft 481 kts 66°
2026-04-30 13:22 17.41827 64.07572 36844 ft 480 kts 66°
2026-04-30 13:22 17.45871 64.17141 36842 ft 480 kts 66°
2026-04-30 13:23 17.49918 64.26728 36842 ft 480 kts 66°
2026-04-30 13:24 17.55288 64.39470 36845 ft 480 kts 66°
2026-04-30 13:25 17.60658 64.52243 36846 ft 480 kts 66°
2026-04-30 13:26 17.67364 64.68237 36845 ft 479 kts 67°
2026-04-30 13:28 17.74008 64.84169 36848 ft 478 kts 67°
2026-04-30 13:28 17.77998 64.93731 36849 ft 479 kts 67°
2026-04-30 13:29 17.83338 65.06544 36850 ft 478 kts 67°
2026-04-30 13:31 17.89938 65.22420 36845 ft 477 kts 67°
2026-04-30 13:32 17.96546 65.38365 36851 ft 476 kts 67°
2026-04-30 13:33 18.01814 65.51104 36845 ft 476 kts 67°
2026-04-30 13:34 18.05753 65.60647 36847 ft 475 kts 67°
2026-04-30 13:35 18.10982 65.73360 36846 ft 476 kts 68°
2026-04-30 13:36 18.16250 65.86081 36840 ft 475 kts 68°
2026-04-30 13:36 18.20177 65.95637 36833 ft 475 kts 68°
2026-04-30 13:37 18.24090 66.05190 36830 ft 475 kts 68°
2026-04-30 13:38 18.27989 66.14725 36830 ft 475 kts 68°
2026-04-30 13:39 18.33197 66.27488 36832 ft 476 kts 68°
2026-04-30 13:40 18.37104 66.37082 36841 ft 476 kts 68°
2026-04-30 13:40 18.39709 66.43484 36842 ft 476 kts 68°
2026-04-30 13:41 18.42297 66.49857 36842 ft 476 kts 68°
2026-04-30 13:41 18.44906 66.56285 36841 ft 476 kts 68°
2026-04-30 13:42 18.47505 66.62696 36839 ft 477 kts 68°
2026-04-30 13:42 18.51376 66.72288 36836 ft 477 kts 68°
2026-04-30 13:43 18.53976 66.78741 36840 ft 478 kts 68°
2026-04-30 13:43 18.56561 66.85150 36846 ft 477 kts 68°
2026-04-30 13:44 18.59148 66.91569 36846 ft 478 kts 68°
2026-04-30 13:44 18.61755 66.98042 36842 ft 478 kts 68°
2026-04-30 13:45 18.65636 67.07693 36835 ft 478 kts 67°
2026-04-30 13:46 18.68228 67.14144 36835 ft 479 kts 67°
2026-04-30 13:46 18.70806 67.20567 36834 ft 479 kts 68°
2026-04-30 13:47 18.73399 67.27035 36834 ft 479 kts 68°
2026-04-30 13:47 18.75988 67.33504 36833 ft 480 kts 67°
2026-04-30 13:48 18.78580 67.39987 36834 ft 480 kts 67°
2026-04-30 13:48 18.81156 67.46439 36832 ft 479 kts 67°
2026-04-30 13:49 18.83743 67.52926 36830 ft 479 kts 67°
2026-04-30 13:49 18.86319 67.59390 36830 ft 480 kts 67°
2026-04-30 13:50 18.88912 67.65909 36828 ft 481 kts 67°
2026-04-30 13:50 18.92757 67.75623 36829 ft 480 kts 68°
2026-04-30 13:51 18.95335 67.82135 36828 ft 480 kts 67°
2026-04-30 13:51 18.97907 67.88628 36829 ft 480 kts 67°
2026-04-30 13:52 19.00476 67.95122 36829 ft 480 kts 67°
2026-04-30 13:52 19.03048 68.01628 36829 ft 480 kts 67°
2026-04-30 13:53 19.05622 68.08147 36829 ft 480 kts 67°
2026-04-30 13:53 19.08185 68.14644 36828 ft 482 kts 67°
2026-04-30 13:54 19.10756 68.21157 36827 ft 482 kts 67°
2026-04-30 13:54 19.13356 68.27684 36826 ft 482 kts 67°
2026-04-30 13:55 19.15933 68.34198 36827 ft 482 kts 67°
2026-04-30 13:55 19.18517 68.40768 36828 ft 482 kts 67°
2026-04-30 13:56 19.21078 68.47299 36829 ft 482 kts 67°
2026-04-30 13:56 19.23639 68.53841 36831 ft 483 kts 67°
2026-04-30 13:57 19.26193 68.60371 36831 ft 483 kts 67°
2026-04-30 13:57 19.28747 68.66914 36828 ft 483 kts 67°
2026-04-30 13:58 19.32585 68.76798 36823 ft 483 kts 67°
2026-04-30 13:59 19.35047 68.83379 36810 ft 484 kts 73°
2026-04-30 13:59 19.35711 68.86832 36821 ft 484 kts 84°
2026-04-30 13:59 19.35823 68.90411 36825 ft 484 kts 93°
2026-04-30 14:00 19.34529 68.97349 36834 ft 485 kts 107°
2026-04-30 14:00 19.31524 69.07581 36828 ft 485 kts 107°
2026-04-30 14:01 19.29546 69.14380 36829 ft 485 kts 107°
2026-04-30 14:01 19.27588 69.21168 36828 ft 485 kts 107°
2026-04-30 14:02 19.25621 69.28001 36825 ft 485 kts 107°
2026-04-30 14:02 19.23664 69.34803 36824 ft 485 kts 107°
2026-04-30 14:03 19.21702 69.41615 36823 ft 485 kts 107°
2026-04-30 14:03 19.19737 69.48428 36824 ft 485 kts 107°
2026-04-30 14:04 19.17775 69.55214 36824 ft 485 kts 107°
2026-04-30 14:04 19.15803 69.62025 36824 ft 486 kts 107°
2026-04-30 14:05 19.13825 69.68860 36825 ft 485 kts 107°
2026-04-30 14:05 19.11855 69.75676 36826 ft 484 kts 107°
2026-04-30 14:06 19.08907 69.85827 36827 ft 485 kts 107°
2026-04-30 14:07 19.05934 69.96030 36827 ft 484 kts 107°
2026-04-30 14:08 19.02964 70.06193 36828 ft 485 kts 107°
2026-04-30 14:08 18.99970 70.16415 36828 ft 486 kts 107°
2026-04-30 14:09 18.97972 70.23227 36829 ft 485 kts 107°
2026-04-30 14:10 18.94994 70.33359 36825 ft 484 kts 107°
2026-04-30 14:10 18.92984 70.40182 36825 ft 485 kts 107°
2026-04-30 14:11 18.90987 70.46954 36824 ft 484 kts 107°
2026-04-30 14:11 18.89469 70.53842 36824 ft 483 kts 92°
2026-04-30 14:12 18.89465 70.60879 36833 ft 482 kts 87°
2026-04-30 14:12 18.89598 70.67943 36832 ft 484 kts 88°
2026-04-30 14:13 18.89696 70.75070 36831 ft 484 kts 88°
2026-04-30 14:13 18.89770 70.82127 36822 ft 483 kts 88°
2026-04-30 14:14 18.89834 70.89142 36490 ft 467 kts 88°
2026-04-30 14:14 18.89864 70.92506 36260 ft 455 kts 88°
2026-04-30 14:14 18.89893 70.95774 35908 ft 447 kts 88°
2026-04-30 14:14 18.89921 70.99040 35400 ft 443 kts 88°
2026-04-30 14:15 18.89949 71.02290 34867 ft 439 kts 88°
2026-04-30 14:15 18.89976 71.05459 34355 ft 435 kts 88°
2026-04-30 14:15 18.90002 71.08650 33833 ft 431 kts 88°
2026-04-30 14:15 18.90027 71.11761 33310 ft 427 kts 88°
2026-04-30 14:16 18.90050 71.14897 32777 ft 424 kts 88°
2026-04-30 14:16 18.90073 71.17971 32269 ft 421 kts 88°
2026-04-30 14:16 18.90095 71.21031 31819 ft 417 kts 87°
2026-04-30 14:16 18.90115 71.24075 31363 ft 414 kts 87°
2026-04-30 14:17 18.90136 71.27126 30908 ft 411 kts 87°
2026-04-30 14:17 18.90157 71.30109 30463 ft 408 kts 87°
2026-04-30 14:17 18.90176 71.33087 30001 ft 405 kts 86°
2026-04-30 14:17 18.90195 71.36020 29542 ft 402 kts 86°
2026-04-30 14:18 18.90214 71.38980 29088 ft 399 kts 86°
2026-04-30 14:18 18.90232 71.41856 28644 ft 397 kts 86°
2026-04-30 14:18 18.90268 71.47643 27828 ft 391 kts 85°
2026-04-30 14:19 18.90300 71.53336 27045 ft 387 kts 85°
2026-04-30 14:19 18.90316 71.56156 26663 ft 384 kts 85°
2026-04-30 14:19 18.90331 71.58950 26276 ft 382 kts 85°
2026-04-30 14:20 18.90345 71.61729 25895 ft 379 kts 85°
2026-04-30 14:20 18.90360 71.64519 25479 ft 378 kts 85°
2026-04-30 14:20 18.90385 71.69983 24598 ft 372 kts 85°
2026-04-30 14:21 18.90396 71.72694 24158 ft 370 kts 85°
2026-04-30 14:21 18.90407 71.75433 23716 ft 369 kts 84°
2026-04-30 14:21 18.90430 71.80794 22825 ft 367 kts 84°
2026-04-30 14:22 18.90441 71.83476 22343 ft 367 kts 84°
2026-04-30 14:22 18.90466 71.88867 21336 ft 367 kts 85°
2026-04-30 14:22 18.90477 71.91557 20862 ft 366 kts 85°
2026-04-30 14:23 18.90496 71.96867 19985 ft 362 kts 85°
2026-04-30 14:23 18.90507 72.02049 19136 ft 343 kts 85°
2026-04-30 14:24 18.90522 72.07026 18296 ft 337 kts 86°
2026-04-30 14:24 18.90530 72.09465 17887 ft 334 kts 86°
2026-04-30 14:25 18.90543 72.14354 17063 ft 331 kts 86°
2026-04-30 14:25 18.90553 72.19167 16246 ft 327 kts 86°
2026-04-30 14:26 18.90563 72.23943 15431 ft 324 kts 87°
2026-04-30 14:26 18.90567 72.26314 15026 ft 323 kts 87°
2026-04-30 14:26 18.90575 72.31035 14214 ft 321 kts 88°
2026-04-30 14:27 18.90579 72.33348 13816 ft 320 kts 88°
2026-04-30 14:27 18.90582 72.35712 13410 ft 319 kts 88°
2026-04-30 14:27 18.90584 72.38047 13004 ft 319 kts 88°
2026-04-30 14:28 18.90588 72.42698 12203 ft 318 kts 88°
2026-04-30 14:28 18.90589 72.45021 11800 ft 317 kts 88°
2026-04-30 14:28 18.90591 72.47353 11389 ft 317 kts 88°
2026-04-30 14:28 18.90593 72.49670 10950 ft 318 kts 89°
2026-04-30 14:29 18.90596 72.54333 10053 ft 320 kts 89°
2026-04-30 14:29 18.90596 72.59052 9128 ft 322 kts 89°
2026-04-30 14:30 18.90748 72.66111 7829 ft 320 kts 86°
2026-04-30 14:31 18.90952 72.70718 7219 ft 310 kts 86°
2026-04-30 14:31 18.91135 72.75122 6828 ft 291 kts 86°
2026-04-30 14:31 18.91220 72.77209 6627 ft 276 kts 85°
2026-04-30 14:32 18.91377 72.81130 6248 ft 260 kts 85°
2026-04-30 14:32 18.91454 72.83021 6062 ft 258 kts 85°
2026-04-30 14:32 18.91532 72.84906 5874 ft 257 kts 85°
2026-04-30 14:33 18.91609 72.86803 5685 ft 257 kts 85°
2026-04-30 14:33 18.91758 72.90568 5306 ft 255 kts 85°
2026-04-30 14:33 18.91832 72.92426 5117 ft 255 kts 85°
2026-04-30 14:34 18.91906 72.94301 5008 ft 254 kts 85°
2026-04-30 14:34 18.91979 72.96171 5004 ft 255 kts 85°
2026-04-30 14:34 18.92052 72.98028 5002 ft 254 kts 85°
2026-04-30 14:34 18.92125 72.99889 5003 ft 254 kts 85°
2026-04-30 14:35 18.92271 73.03639 5012 ft 254 kts 85°
2026-04-30 14:35 18.92342 73.05490 5002 ft 246 kts 85°
2026-04-30 14:35 18.92410 73.07241 4997 ft 232 kts 83°
2026-04-30 14:36 18.92798 73.08839 5069 ft 218 kts 56°
2026-04-30 14:36 18.93837 73.09902 5056 ft 204 kts 27°
2026-04-30 14:36 18.95097 73.10593 5023 ft 204 kts 21°
2026-04-30 14:36 18.96378 73.11222 4787 ft 201 kts 20°
2026-04-30 14:37 18.97632 73.11824 4545 ft 195 kts 20°
2026-04-30 14:37 18.98859 73.12413 4302 ft 190 kts 20°
2026-04-30 14:37 19.00071 73.12994 4058 ft 189 kts 20°
2026-04-30 14:37 19.01278 73.13568 3728 ft 190 kts 20°
2026-04-30 14:38 19.02494 73.14140 3396 ft 190 kts 18°
2026-04-30 14:38 19.03753 73.14346 3048 ft 183 kts 345°
2026-04-30 14:38 19.04770 73.13670 2937 ft 170 kts 308°
2026-04-30 14:38 19.05438 73.12618 2936 ft 171 kts 301°
2026-04-30 14:39 19.06036 73.11542 2944 ft 171 kts 300°
2026-04-30 14:39 19.06637 73.10442 2928 ft 171 kts 300°
2026-04-30 14:39 19.07229 73.09358 2918 ft 171 kts 299°
2026-04-30 14:40 19.08426 73.07182 2911 ft 171 kts 298°
2026-04-30 14:40 19.08841 73.06007 2906 ft 171 kts 284°
2026-04-30 14:40 19.09009 73.04752 2904 ft 171 kts 276°
2026-04-30 14:40 19.09067 73.03496 2785 ft 169 kts 273°
2026-04-30 14:41 19.09080 73.02266 2562 ft 162 kts 271°
2026-04-30 14:41 19.09072 73.01113 2355 ft 154 kts 270°
2026-04-30 14:41 19.09059 73.00009 2182 ft 148 kts 270°
2026-04-30 14:41 19.09044 72.98948 1987 ft 140 kts 269°
2026-04-30 14:42 19.09030 72.97924 1824 ft 139 kts 268°
2026-04-30 14:42 19.09015 72.96911 1656 ft 139 kts 268°
2026-04-30 14:42 19.09001 72.95888 1489 ft 139 kts 268°
2026-04-30 14:42 19.08986 72.94857 1313 ft 139 kts 268°
2026-04-30 14:43 19.08972 72.93832 1135 ft 138 kts 268°
2026-04-30 14:43 19.08957 72.92813 956 ft 138 kts 268°
2026-04-30 14:43 19.08943 72.91799 778 ft 137 kts 268°
2026-04-30 14:43 19.08926 72.90781 601 ft 136 kts 267°
2026-04-30 14:44 19.08910 72.89786 447 ft 136 kts 268°
2026-04-30 14:44 19.08892 72.88769 274 ft 136 kts 268°
2026-04-30 14:44 19.08882 72.87766 99 ft 135 kts 268°
2026-04-30 14:44 19.08874 72.86787 33 ft 124 kts 268°
2026-04-30 14:45 19.08859 72.86117 30 ft 53 kts 274°
2026-04-30 14:45 19.08858 72.85773 28 ft 40 kts 271°
2026-04-30 14:45 19.08857 72.85508 25 ft 29 kts 274°
2026-04-30 14:45 19.08900 72.85342 26 ft 19 kts 295°
2026-04-30 14:46 19.08937 72.85265 25 ft 0 kts 299°
2026-04-30 14:46 19.08938 72.85263 25 ft 0 kts 299°
2026-04-30 14:46 19.08942 72.85257 25 ft 1 kts 307°
2026-04-30 14:46 19.08966 72.85242 25 ft 5 kts 343°
2026-04-30 14:47 19.09005 72.85249 26 ft 5 kts 36°
2026-04-30 14:47 19.09022 72.85282 27 ft 4 kts 81°
2026-04-30 14:47 19.09023 72.85318 28 ft 4 kts 90°
2026-04-30 14:47 19.09023 72.85355 28 ft 5 kts 89°
2026-04-30 14:48 19.09023 72.85407 28 ft 9 kts 89°
2026-04-30 14:48 19.09024 72.85501 28 ft 15 kts 89°
2026-04-30 14:48 19.09025 72.85615 28 ft 15 kts 89°
2026-04-30 14:48 19.09028 72.85729 29 ft 14 kts 89°
2026-04-30 14:49 19.09029 72.85825 29 ft 12 kts 89°
2026-04-30 14:49 19.09030 72.85919 30 ft 12 kts 89°
2026-04-30 14:49 19.09032 72.86007 31 ft 12 kts 89°
2026-04-30 14:49 19.09032 72.86099 31 ft 13 kts 89°
2026-04-30 14:50 19.09039 72.86283 31 ft 10 kts 74°
2026-04-30 14:50 19.09072 72.86350 32 ft 10 kts 53°
2026-04-30 14:51 19.09180 72.86481 31 ft 13 kts 49°
2026-04-30 14:51 19.09240 72.86554 33 ft 12 kts 50°
2026-04-30 14:51 19.09361 72.86696 35 ft 12 kts 49°
2026-04-30 14:52 19.09410 72.86756 36 ft 7 kts 49°
2026-04-30 14:52 19.09427 72.86883 35 ft 10 kts 57°
2026-04-30 14:52 19.09468 72.86935 36 ft 6 kts 48°
2026-04-30 14:53 19.09439 72.87016 36 ft 5 kts 125°
2026-04-30 14:53 19.09427 72.87035 35 ft 0 kts 125°